[[{"header":{"parameterUnit":"m.s-1","parameterCategory":1,"la1":30.2991,"la2":30.254,"lo1":-89.0895,"lo2":-89.0444,"dy":0.0017,"dx":0.0017,"nx":28,"ny":28,"refTime":"2025-04-09T03:00:00:Z","depth":0,"parameterNumber":2,"parameterNumberName":"U-component_of_WINDS"},"data":[0,0,0,0,0,0,0,0,0,0,0,0,0,0,0,0,0,0,0,0,0,0,0,0,0,0,0,0,0,0,0,0,0,0,0,0,0,0,0,0,0,0,0,0,0,0,0,0,0,0,0,0,0,0,0,0,0,0,0.9912,0.9913,0,0.9945,0.9945,0.9946,0.9966,0.9967,0.9967,0.9967,0.9998,0.9999,1.0,0,0,0,0,0,0,0,0,0,0,0,0,0,0.9866,0.9867,0.9912,0.9913,0.9913,0.9945,0.9945,0.9946,0.9966,0.9967,0.9967,0.9967,0.9998,0.9999,1.0,0,0,0,0,0,0,0,0,0,0,0,0,0,0.9891,0.9867,0.9912,0.9927,0.9929,0.9945,0.9946,0.9946,0.9966,0.9967,0.9967,0.9967,0.9998,0.9999,1.0,1.0003,0,0,1.0003,1.0004,0,0,0,0,0,0,0,0,0.989,0.9893,0.9925,0.9926,0.9928,0.9952,0.9941,0.9965,0.9966,0.9952,0.9967,0.9967,0.9983,0.9985,0.9991,1.0004,1.0006,1.0003,1.0004,1.0004,1.0005,0,0,0,0,0,0,0,0.9888,0.9892,0.9925,0.9925,0.9927,0.9932,0.9936,0.9945,0.9966,0.9953,0.9955,0.9959,0.9984,0.999,0.9991,1.0006,1.0003,1.0004,1.0005,1.0005,1.0024,1.0024,0,0,0,0,0,0,0.9884,0.989,0.9924,0.9926,0.9909,0.9933,0.9937,0.9944,0.9966,0.9969,0.9958,0.996,0.9988,0.999,0.9993,0.9998,1.0004,1.0005,1.0006,1.0025,1.0024,1.0024,0,0,0,0,0,0,0.9883,0.9887,0.9923,0.9909,0.9914,0.9933,0.9941,0.9945,0.9951,0.997,0.9973,0.9961,0.9988,0.9991,1.0,0.9999,1.0006,1.0007,1.0025,1.0024,1.0024,1.0008,0,0,0,0,0,0,0.9882,0.9886,0.9888,0.9909,0.9914,0.993,0.9941,0.9945,0.9953,0.9954,0.9973,0.9976,0.9988,0.9999,1.0001,1.0001,1.0008,1.0025,1.0025,1.0024,1.0008,1.0007,1.0006,0,0,0,0,0,0.988,0.9882,0.9888,0.9892,0.9917,0.993,0.9934,0.9948,0.9952,0.9954,0.9966,0.9976,0.9999,0.9999,1.0003,1.0002,1.0025,1.0025,1.0024,1.0009,1.0007,1.0006,0,0,0,0,0,0,0.986,0.9884,0.9892,0.99,0.9913,0.9934,0.9936,0.9946,0.9957,0.9958,0.9975,0.9979,0.9986,0.9995,0.9995,1.0007,1.0013,1.0013,1.0,0.9999,0.9997,0.9995,1.0009,0,0,0,0,0,0.9856,0.9866,0.9887,0.9892,0.9898,0.9916,0.9923,0.9933,0.9946,0.9952,0.9965,0.9977,0.9987,0.9994,1.0004,1.001,1.0014,1.0011,1.001,1.0009,1.0009,1.0013,1.0012,1.0023,1.0023,1.0023,0,0,0.9849,0.9864,0.9869,0.9888,0.99,0.9909,0.992,0.9929,0.9936,0.9953,0.9963,0.9973,0.9988,0.9995,0.9999,1.0003,1.0007,1.0008,1.0007,1.0008,1.0012,1.0011,1.001,1.0023,1.0023,1.0023,0,0,0.984,0.9853,0.9859,0.987,0.9887,0.9899,0.99,0.992,0.9927,0.9938,0.9951,0.9959,0.9976,0.9986,0.9994,0.999,0.9999,0.9993,0.9985,0.9989,0.9988,0.9988,0.9986,0.9985,0.9993,0.9993,0.9993,0,0.9829,0.9844,0.986,0.9869,0.9877,0.9894,0.99,0.991,0.9929,0.9934,0.9938,0.9961,0.9972,0.9982,0.9981,0.9987,0.9989,0.999,0.9987,0.9987,0.9986,0.9985,0.9984,0.9992,0.9992,0.9992,0.9992,0,0.9829,0.9839,0.9842,0.9861,0.9869,0.9876,0.9894,0.99,0.991,0.9922,0.9932,0.9946,0.996,0.9963,0.9973,0.9975,0.9977,0.9984,0.9991,0.9984,0.9983,0.9983,0.9991,0.9991,0.9991,0.9991,0,0,0.9807,0.9836,0.9837,0.9846,0.9867,0.9874,0.9882,0.9897,0.9902,0.9915,0.9922,0.9937,0.9943,0.9952,0.9962,0.9966,0.9962,0.9972,0.9973,0.997,0.9966,0.996,0.996,0.9968,0.9968,0.9968,0.9965,0,0.9801,0.9817,0.9833,0.9842,0.9852,0.9868,0.9875,0.9888,0.99,0.9909,0.9921,0.9931,0.9939,0.9945,0.9949,0.9962,0.9961,0.9962,0.9974,0.9975,0.997,0.9959,0.9953,0.9949,0.9965,0.9965,0.9965,0,0.9796,0.9809,0.982,0.9841,0.9845,0.9851,0.9866,0.9875,0.989,0.9898,0.9908,0.992,0.9929,0.9935,0.9947,0.9948,0.9954,0.9961,0.9961,0.9962,0.9969,0.996,0.9948,0.9947,0.9964,0.9964,0.9964,0,0.9779,0.98,0.9809,0.9816,0.984,0.9844,0.9854,0.987,0.9877,0.989,0.9895,0.9909,0.9916,0.9926,0.9941,0.9944,0.9952,0.9959,0.9958,0.9958,0.9958,0.9958,0.9947,0.9963,0.9963,0.9963,0.9963,0,0.977,0.9776,0.9802,0.9807,0.9814,0.9832,0.9839,0.985,0.9864,0.9872,0.9887,0.9894,0.9914,0.9923,0.9935,0.9944,0.9947,0.9953,0.9956,0.9952,0.9951,0.9955,0.9956,0.9963,0.9963,0.9963,0.9963,0,0.9752,0.9769,0.978,0.9802,0.9808,0.9813,0.9831,0.9837,0.985,0.986,0.9863,0.9883,0.9895,0.9911,0.9927,0.9935,0.9942,0.9947,0.9937,0.9939,0.9937,0.9937,0.9928,0.9927,0.9944,0.9944,0.9944,0,0.9745,0.975,0.9773,0.978,0.979,0.98,0.9809,0.9827,0.9835,0.9853,0.9857,0.987,0.9882,0.99,0.9916,0.9929,0.9934,0.993,0.9936,0.9931,0.9933,0.9933,0.9933,0.9928,0.9928,0.9927,0.9927,0,0.973,0.9739,0.9751,0.9766,0.9776,0.9788,0.9801,0.9806,0.9827,0.9835,0.9848,0.9857,0.9875,0.9887,0.9903,0.9913,0.9923,0.9926,0.9926,0.9921,0.9915,0.9918,0.9933,0.9925,0.9926,0.9926,0.9926,0.9926,0.9717,0.9723,0.974,0.9753,0.9765,0.9777,0.9784,0.9798,0.9809,0.9825,0.9835,0.9848,0.9864,0.9886,0.9895,0.9905,0.9909,0.991,0.991,0.991,0.9908,0.9914,0.9908,0.9908,0.9908,0.9908,0.9908,0,0.9703,0.9715,0.9727,0.9746,0.9756,0.9766,0.9781,0.9789,0.98,0.9814,0.9826,0.9841,0.9854,0.9871,0.9885,0.9889,0.9895,0.9892,0.9892,0.9894,0.9904,0.9902,0.9888,0.9888,0.9888,0.9888,0.9888,0.9888,0.9697,0.9707,0.9718,0.9734,0.9746,0.9759,0.9767,0.9778,0.979,0.9806,0.9817,0.9828,0.9844,0.9859,0.9872,0.9877,0.9881,0.9877,0.9883,0.9891,0.9893,0.9895,0.9893,0.9878,0.9878,0.9873,0.9873,0.9872]},{"header":{"parameterUnit":"m.s-1","parameterCategory":1,"la1":30.2991,"la2":30.254,"lo1":-89.0895,"lo2":-89.0444,"dy":0.0017,"dx":0.0017,"nx":28,"ny":28,"refTime":"2025-04-09T03:00:00:Z","depth":0,"parameterNumber":3,"parameterNumberName":"V-component_of_WINDS"},"data":[0,0,0,0,0,0,0,0,0,0,0,0,0,0,0,0,0,0,0,0,0,0,0,0,0,0,0,0,0,0,0,0,0,0,0,0,0,0,0,0,0,0,0,0,0,0,0,0,0,0,0,0,0,0,0,0,0,0,-5.0447,-5.0449,0,-5.0628,-5.0631,-5.0633,-5.0572,-5.0568,-5.0564,-5.056,-5.0743,-5.0752,-5.076,0,0,0,0,0,0,0,0,0,0,0,0,0,-5.0046,-5.0054,-5.0447,-5.0449,-5.0451,-5.0628,-5.0631,-5.0633,-5.0572,-5.0568,-5.0563,-5.0558,-5.0741,-5.0751,-5.0761,0,0,0,0,0,0,0,0,0,0,0,0,0,-5.0223,-5.0056,-5.0446,-5.0442,-5.0444,-5.0628,-5.0631,-5.0634,-5.0573,-5.0567,-5.0562,-5.0556,-5.0737,-5.075,-5.0762,-5.096,0,0,-5.0802,-5.0807,0,0,0,0,0,0,0,0,-5.0213,-5.0238,-5.0441,-5.0443,-5.0445,-5.0571,-5.0556,-5.0743,-5.0575,-5.0524,-5.056,-5.0553,-5.0691,-5.0707,-5.0754,-5.0969,-5.0977,-5.0803,-5.0811,-5.0816,-5.082,0,0,0,0,0,0,0,-5.0201,-5.023,-5.0518,-5.0444,-5.0446,-5.0431,-5.045,-5.0592,-5.0638,-5.0528,-5.0524,-5.0547,-5.0691,-5.0742,-5.0758,-5.0979,-5.0802,-5.0814,-5.0822,-5.0827,-5.1367,-5.1373,0,0,0,0,0,0,-5.0188,-5.022,-5.0513,-5.0524,-5.0312,-5.0443,-5.0464,-5.0537,-5.0637,-5.0646,-5.0551,-5.0543,-5.0723,-5.0743,-5.0764,-5.1004,-5.0816,-5.0828,-5.0835,-5.136,-5.1368,-5.1375,0,0,0,0,0,0,-5.0179,-5.0214,-5.0505,-5.0371,-5.0407,-5.0456,-5.0539,-5.0543,-5.0594,-5.0654,-5.0662,-5.0595,-5.0719,-5.0746,-5.0912,-5.1009,-5.0834,-5.0845,-5.1352,-5.1363,-5.1372,-5.1483,0,0,0,0,0,0,-5.0168,-5.0212,-5.0288,-5.0373,-5.0414,-5.0652,-5.0545,-5.0551,-5.0617,-5.0608,-5.0697,-5.0707,-5.0716,-5.0894,-5.0925,-5.1024,-5.0856,-5.1344,-5.1357,-5.1369,-5.1471,-5.1496,-5.1517,0,0,0,0,0,-5.0154,-5.0311,-5.0292,-5.0328,-5.051,-5.0657,-5.0681,-5.069,-5.0625,-5.0702,-5.0741,-5.0704,-5.0993,-5.0911,-5.0946,-5.105,-5.1338,-5.1353,-5.1368,-5.1461,-5.1491,-5.1516,0,0,0,0,0,0,-5.0234,-5.0322,-5.0302,-5.0491,-5.0568,-5.0647,-5.0744,-5.0721,-5.0816,-5.0803,-5.0809,-5.083,-5.1002,-5.1042,-5.0949,-5.1247,-5.1156,-5.1179,-5.1215,-5.1244,-5.1266,-5.1253,-5.0866,0,0,0,0,0,-5.0274,-5.0387,-5.0457,-5.0617,-5.0657,-5.0694,-5.0758,-5.0759,-5.0837,-5.0869,-5.092,-5.0997,-5.1105,-5.1176,-5.1279,-5.1476,-5.1496,-5.1565,-5.1588,-5.1606,-5.1626,-5.1735,-5.1767,-5.1425,-5.1424,-5.1424,0,0,-5.0358,-5.0419,-5.049,-5.0635,-5.0694,-5.0811,-5.0721,-5.0848,-5.0934,-5.0888,-5.1049,-5.1089,-5.1175,-5.1358,-5.1441,-5.1397,-5.1725,-5.1625,-5.164,-5.165,-5.1753,-5.1786,-5.1814,-5.1435,-5.1433,-5.1431,0,0,-5.0569,-5.0627,-5.0768,-5.0829,-5.092,-5.0944,-5.0978,-5.1062,-5.1087,-5.1249,-5.1217,-5.1319,-5.1505,-5.1569,-5.1626,-5.1863,-5.1833,-5.1896,-5.2016,-5.2121,-5.2148,-5.2172,-5.2258,-5.2289,-5.1915,-5.1916,-5.1916,0,-5.0661,-5.0836,-5.0843,-5.0973,-5.1038,-5.1003,-5.1146,-5.1204,-5.1324,-5.137,-5.1319,-5.1553,-5.1609,-5.1807,-5.1865,-5.1912,-5.1951,-5.1886,-5.2144,-5.2168,-5.2191,-5.2273,-5.2305,-5.1923,-5.1922,-5.1921,-5.1921,0,-5.0945,-5.1067,-5.1169,-5.1288,-5.1364,-5.15,-5.1527,-5.1604,-5.1598,-5.1627,-5.1793,-5.1858,-5.1975,-5.2021,-5.2016,-5.222,-5.219,-5.2142,-5.205,-5.223,-5.2308,-5.2339,-5.1933,-5.1931,-5.1928,-5.1927,0,0,-5.1212,-5.1334,-5.1372,-5.1425,-5.1524,-5.1618,-5.1752,-5.1867,-5.1933,-5.2017,-5.213,-5.2289,-5.2246,-5.231,-5.2312,-5.2404,-5.259,-5.2345,-5.2347,-5.2389,-5.282,-5.2856,-5.2892,-5.257,-5.2576,-5.2581,-5.2813,0,-5.1433,-5.167,-5.1681,-5.1897,-5.201,-5.1978,-5.2095,-5.2168,-5.2199,-5.2299,-5.2332,-5.2446,-5.238,-5.2419,-5.2509,-5.2548,-5.2676,-5.2531,-5.2676,-5.2681,-5.2656,-5.2932,-5.2971,-5.3186,-5.2843,-5.2848,-5.2852,0,-5.1722,-5.1817,-5.2045,-5.2128,-5.2176,-5.2281,-5.2388,-5.2484,-5.2566,-5.2582,-5.2656,-5.2644,-5.2781,-5.2685,-5.2874,-5.2775,-5.2835,-5.2863,-5.2872,-5.2886,-5.2778,-5.2955,-5.3255,-5.3288,-5.2899,-5.2895,-5.2892,0,-5.1896,-5.208,-5.2241,-5.2287,-5.2389,-5.2464,-5.2509,-5.2586,-5.2655,-5.2748,-5.2793,-5.29,-5.2959,-5.3042,-5.306,-5.2988,-5.3251,-5.3155,-5.3268,-5.3268,-5.3325,-5.3322,-5.364,-5.3362,-5.3361,-5.3361,-5.336,0,-5.2142,-5.2283,-5.232,-5.2419,-5.2576,-5.2587,-5.2741,-5.2781,-5.285,-5.2956,-5.2934,-5.3034,-5.3051,-5.3154,-5.3169,-5.3324,-5.3351,-5.3368,-5.337,-5.3371,-5.3369,-5.341,-5.3396,-5.3369,-5.3368,-5.3366,-5.3364,0,-5.2363,-5.2394,-5.2567,-5.2649,-5.2673,-5.2785,-5.2855,-5.295,-5.2979,-5.3113,-5.3145,-5.3191,-5.3311,-5.3337,-5.348,-5.349,-5.3675,-5.3662,-5.3648,-5.3647,-5.3759,-5.3749,-5.4116,-5.4165,-5.3854,-5.3857,-5.3859,0,-5.2519,-5.2626,-5.2721,-5.2791,-5.2841,-5.2953,-5.3024,-5.3039,-5.3113,-5.3216,-5.3298,-5.3417,-5.3513,-5.3707,-5.3753,-5.3862,-5.3852,-5.3973,-5.3868,-5.3866,-5.3855,-5.3849,-5.386,-5.3994,-5.3997,-5.4,-5.4002,0,-5.2792,-5.2802,-5.2905,-5.3015,-5.3101,-5.3187,-5.3269,-5.3328,-5.3354,-5.3438,-5.3562,-5.3637,-5.3784,-5.3902,-5.4012,-5.4058,-5.4035,-5.4035,-5.4067,-5.4069,-5.4057,-5.4066,-5.3704,-5.4026,-5.4024,-5.4022,-5.4021,-5.402,-5.2986,-5.3081,-5.3163,-5.3279,-5.3343,-5.3421,-5.3514,-5.3555,-5.3659,-5.3781,-5.3783,-5.3919,-5.3999,-5.4144,-5.4197,-5.4303,-5.4265,-5.4312,-5.4324,-5.4335,-5.4346,-5.4039,-5.4323,-5.4322,-5.4322,-5.4321,-5.4321,0,-5.3259,-5.331,-5.3417,-5.3534,-5.3626,-5.3597,-5.3687,-5.3765,-5.3886,-5.3963,-5.4058,-5.4201,-5.4316,-5.4371,-5.4485,-5.4559,-5.4552,-5.4589,-5.4584,-5.4595,-5.4373,-5.4334,-5.4593,-5.4593,-5.4593,-5.4593,-5.4593,-5.4593,-5.3412,-5.3572,-5.3592,-5.3783,-5.3833,-5.3967,-5.4021,-5.4093,-5.4155,-5.4316,-5.4412,-5.4448,-5.4516,-5.4635,-5.4739,-5.4752,-5.4795,-5.4838,-5.4846,-5.4638,-5.461,-5.4584,-5.4548,-5.4847,-5.4847,-5.506,-5.5062,-5.5063]}]]